Regional Weather Roundup
Issued by NWS Mt. Holly, NJ

Home | Current Version | Previous Version | Text Only | Print | Product List | Glossary On
Versions: 1 2 3 4 5 6 7 8 9 10 11 12 13 14 15 16 17 18 19 20 21 22 23 24 25 26 27
000
ASUS41 KPHI 031712
RWRPHI

REGIONAL WEATHER ROUNDUP
NATIONAL WEATHER SERVICE MOUNT HOLLY NJ
1200 PM EST SAT DEC 03 2016

NOTE:  "FAIR" INDICATES FEW OR NO CLOUDS BELOW 12,000 FEET WITH NO
SIGNIFICANT WEATHER AND/OR OBSTRUCTIONS TO VISIBILITY.

 * = STATION DOES NOT REPORT PRECIPITATION (E.G. RAIN, SNOW, ETC.)
        OR FOG.

NJZ015>026-031800-
SOUTHERN NEW JERSEY

CITY           SKY/WX    TMP DP  RH WIND       PRES   REMARKS
POMONA         MOSUNNY   51  29  42 NW22G36   30.09S
WILDWOOD*      MOSUNNY   49  32  52 NW13G28   30.11F
MILLVILLE      PTSUNNY   50  33  52 NW14G29   30.12F
WRIGHTSTOWN    MOSUNNY   49  28  45 NW17G29   30.06R
MOUNT HOLLY    CLOUDY    48  29  47 NW8G23    30.11R
TRENTON        PTSUNNY   48  27  44 NW16G24   30.08S

$$
NJZ001>014-031800-
NORTHERN NEW JERSEY

CITY           SKY/WX    TMP DP  RH WIND       PRES   REMARKS
SUSSEX         CLOUDY    44  27  51 VRB6      30.05S
ANDOVER*         N/A     42  26  53 NW12G21   30.05S
MORRISTOWN     MOSUNNY   46  27  46 N17G33    30.05S
NEWARK         MOSUNNY   49  26  41 NW18G25   30.03F
TETERBORO      SUNNY     46  26  45 NW15G24   30.03S
CALDWELL       PTSUNNY   46  26  45 N10G17    30.04F
SOMERVILLE     MOSUNNY   47  26  44 NW17G31   30.06R
ALLAIRE*       CLOUDY    48  27  44 W18G36    30.05S
TOMS RIVER*    MOSUNNY   49  28  44 NW26G37   30.06F

$$
PAZ043-044-047-054-055-060>062-066>071-031800-
EASTERN PENNSYLVANIA

CITY           SKY/WX    TMP DP  RH WIND       PRES   REMARKS
PHILADELPHIA   PTSUNNY   49  28  44 W16       30.12F
NORTH PHILA    PTSUNNY   49  30  48 W16G24    30.12S
BLUE BELL*     CLOUDY    45  30  57 NW9       30.10S
DOYLESTOWN     CLOUDY    48  29  47 NW14G24   30.08F
QUAKERTOWN*    PTSUNNY   45  28  53 NW12      30.10S
PERKASIE*      CLOUDY    45  28  53 NW10G18   30.10S
POTTSTOWN      MOSUNNY   45  28  51 NW13G24   30.12S
LANCASTER      CLOUDY    47  34  60 W17       30.14F
COATESVILLE    CLOUDY    45  32  61 NW14      30.13F
READING        PTSUNNY   49  30  48 NW13G23   30.11F
ALLENTOWN      PTSUNNY   47  27  45 NW15G24   30.09F
MOUNT POCONO   CLOUDY    35  26  69 NW17G35   30.01R WCI  25
HAZLETON       CLOUDY    41  28  60 NW12G21   30.09R
LEHIGHTON        N/A     46  28  49 NW7       30.10S
WILKES BARRE   CLOUDY    41  30  65 NW9       30.08S

$$
DEZALL-MDZ008-012-015-019-020-031800-
DELAWARE AND EASTERN MARYLAND

CITY           SKY/WX    TMP DP  RH WIND       PRES   REMARKS
WILMINGTON     CLOUDY    51  33  50 NW18      30.14F
DOVER          SUNNY     50  33  52 NW20      30.11F
GEORGETOWN     MOSUNNY   50  29  44 NW16G29   30.14F
EASTON         SUNNY     50  28  43 NW20G26   30.20F
ABERDEEN       CLOUDY    49  31  48 NW13      30.17F
PATUXENT       PTSUNNY   50  29  44 NW17      30.19F
OCEAN CITY     SUNNY     51  30  44 NW21G30   30.13F
WALLOPS ISLAND SUNNY     50  32  50 NW16G23   30.16S
CAMBRIDGE      SUNNY     46  32  57 NW13G22   30.17F
SALISBURY      SUNNY     51  30  44 NW16G30   30.15F

$$
PAZ001-021-NYZ056-072-MDZ011-DCZ001-031800-
OTHER NEARBY LOCATIONS

CITY           SKY/WX    TMP DP  RH WIND       PRES   REMARKS
HARRISBURG     CLOUDY    46  32  58 NW17      30.15F
STATE COLLEGE  CLOUDY    37  32  81 W14G21    30.17F WCI  29
WILLIAMSPORT   CLOUDY    45  29  53 NW18G26   30.13R
BINGHAMTON     CLOUDY    33  30  88 NW13      30.05S FOG     WCI  24
NEW YORK CITY  PTSUNNY   45  25  45 VRB5      30.05S
BALTIMORE      PTSUNNY   50  30  46 NW16G29   30.18F
WASHINGTON DC  MOSUNNY   50  30  46 NW15G21   30.23S

$$




USA.gov is the U.S. government's official web portal to all federal, state and local government web resources and services.